Ludington, MI

11:06 PM EDT on October 20, 2019 (GMT -0400)
Mason County

Weather History for KLDM - August, 2019

Change the Weather History Date:

Friday, August 9, 2019

  Actual Average Record
Temperature  
Mean Temperature 64 °F -  
Max Temperature 73 °F 79 °F 91 °F (2001)
Min Temperature 56 °F 58 °F 40 °F (1964)
Growing Degree Days 14 (Base 50)    
Moisture  
Dew Point 58 °F    
Average Humidity 73    
Maximum Humidity 98    
Minimum Humidity 50    
Precipitation  
Precipitation 0.00 in - - ()
Sea Level Pressure  
Sea Level Pressure 29.91 in    
Wind  
Wind Speed 5 mph (WNW)    
Max Wind Speed 10 mph    
Max Gust Speed 16 mph    
Visibility 9 miles    
Events      
Averages and records for this station are not official NWS values.
T = Trace of Precipitation, MM = Missing Value Source: NWS Daily Summary

Daily Weather History Graph

Daily Weather History Graph

Search for Another Location

Airport or City:

Astronomy

Aug. 09, 2019 Rise Set
Actual Time 6:42 AM EDT 8:59 PM EDT
Civil Twilight 6:10 AM EDT 9:30 PM EDT
Nautical Twilight 5:30 AM EDT 10:10 PM EDT
Astronomical Twilight 4:46 AM EDT 10:54 PM EDT
Moon 4:42 PM EDT (8/9) 1:38 AM EDT (8/9)
Length of Visible Light 15h 20m
Length of Day
14h 16m
Waxing Gibbous, 70% of the Moon is Illuminated
Aug 9
Waxing Gibbous
Aug 15
Full
Aug 23
Last Quarter
Aug 30
New
Sep 5
First Quarter

Hourly Weather History & Observations

Time (EDT) Temp. Dew Point Humidity Pressure Visibility Wind Dir Wind Speed Gust Speed Precip Events Conditions
12:17 AM 67.6 °F 57.6 °F 70% 29.85 in 10.0 mi WNW 3.5 mph - N/A   Clear
12:35 AM 67.6 °F 57.0 °F 69% 29.85 in 10.0 mi WNW 4.6 mph - N/A   Clear
12:36 AM 67.6 °F 57.0 °F 69% 29.85 in 10.0 mi WNW 4.6 mph - N/A   Clear
12:55 AM 68.0 °F 57.2 °F 68% 29.85 in 10.0 mi NW 5.8 mph - N/A   Clear
1:15 AM 67.8 °F 56.7 °F 67% 29.85 in 10.0 mi NW 5.8 mph - N/A   Clear
1:38 AM 67.8 °F 56.5 °F 67% 29.85 in 10.0 mi NW 4.6 mph - N/A   Clear
1:56 AM 67.6 °F 56.5 °F 67% 29.85 in 10.0 mi NW 6.9 mph - N/A   Clear
2:15 AM 67.1 °F 56.8 °F 70% 29.85 in 10.0 mi NW 8.1 mph - N/A   Clear
2:16 AM 67.1 °F 56.8 °F 70% 29.85 in 10.0 mi NW 6.9 mph - N/A   Clear
2:35 AM 67.3 °F 56.8 °F 69% 29.85 in 10.0 mi NW 5.8 mph - N/A   Clear
2:59 AM 66.4 °F 56.3 °F 70% 29.86 in 10.0 mi NW 4.6 mph - N/A   Clear
3:16 AM 66.2 °F 56.7 °F 71% 29.86 in 10.0 mi NW 6.9 mph - N/A   Clear
3:35 AM 65.3 °F 57.2 °F 75% 29.86 in 10.0 mi NW 4.6 mph - N/A   Clear
3:36 AM 65.3 °F 57.2 °F 75% 29.86 in 10.0 mi NW 4.6 mph - N/A   Clear
3:55 AM 64.6 °F 57.4 °F 77% 29.86 in 10.0 mi NW 3.5 mph - N/A   Clear
4:15 AM 60.8 °F 58.1 °F 91% 29.86 in 10.0 mi Calm Calm - N/A   Clear
4:20 AM 60.8 °F 58.5 °F 92% 29.86 in 10.0 mi Calm Calm - N/A   Clear
4:38 AM 57.9 °F 56.8 °F 96% 29.86 in 10.0 mi Calm Calm - N/A   Clear
4:56 AM 58.8 °F 58.1 °F 97% 29.87 in 10.0 mi Calm Calm - N/A   Clear
5:15 AM 57.9 °F 57.0 °F 97% 29.87 in 2.5 mi Calm Calm - N/A   Clear
5:35 AM 57.2 °F 56.5 °F 97% 29.87 in 1.5 mi Calm Calm - N/A   Mist
5:36 AM 57.2 °F 56.5 °F 97% 29.87 in 1.2 mi Calm Calm - N/A   Mist
5:59 AM 57.2 °F 56.5 °F 97% 29.87 in 1.0 mi Calm Calm - N/A   Mist
6:17 AM 56.5 °F 55.9 °F 98% 29.87 in 2.5 mi Calm Calm - N/A   Clear
6:35 AM 56.1 °F 55.4 °F 97% 29.88 in 1.5 mi Calm Calm - N/A   Mist
6:55 AM 56.1 °F 55.6 °F 98% 29.88 in 0.8 mi Calm Calm - N/A   Mist
7:15 AM 56.3 °F 55.8 °F 98% 29.89 in 1.8 mi Calm Calm - N/A   Mist
7:38 AM 57.4 °F 56.7 °F 97% 29.90 in 10.0 mi Calm Calm - N/A   Clear
7:56 AM 62.6 °F 60.1 °F 91% 29.90 in 10.0 mi WNW 3.5 mph - N/A   Clear
8:15 AM 66.0 °F 58.8 °F 78% 29.90 in 10.0 mi WNW 3.5 mph - N/A   Clear
8:16 AM 66.4 °F 58.8 °F 77% 29.90 in 10.0 mi WNW 3.5 mph - N/A   Clear
8:35 AM 67.8 °F 58.8 °F 73% 29.90 in 10.0 mi WNW 6.9 mph - N/A   Clear
8:59 AM 68.7 °F 59.2 °F 72% 29.91 in 10.0 mi NW 9.2 mph - N/A   Clear
9:17 AM 68.9 °F 59.2 °F 71% 29.92 in 10.0 mi NW 10.4 mph - N/A   Clear
9:35 AM 69.1 °F 59.4 °F 71% 29.92 in 10.0 mi WNW 8.1 mph - N/A   Clear
9:55 AM 69.6 °F 59.4 °F 70% 29.92 in 10.0 mi NW 9.2 mph - N/A   Clear
9:56 AM 69.6 °F 59.2 °F 69% 29.92 in 10.0 mi WNW 8.1 mph - N/A   Clear
10:15 AM 69.3 °F 58.6 °F 69% 29.93 in 10.0 mi WNW 9.2 mph 16.1 mph N/A   Clear
10:37 AM 69.8 °F 59.2 °F 69% 29.93 in 10.0 mi NW 10.4 mph - N/A   Clear
10:56 AM 70.7 °F 59.7 °F 68% 29.93 in 10.0 mi West 8.1 mph - N/A   Clear
11:15 AM 70.5 °F 59.4 °F 68% 29.93 in 10.0 mi NW 9.2 mph - N/A   Clear
11:16 AM 70.5 °F 59.4 °F 68% 29.93 in 10.0 mi NW 8.1 mph - N/A   Clear
11:35 AM 70.9 °F 59.9 °F 68% 29.93 in 10.0 mi WNW 4.6 mph - N/A   Clear
11:36 AM 70.9 °F 60.1 °F 69% 29.93 in 10.0 mi WNW 4.6 mph - N/A   Clear
11:58 AM 71.1 °F 59.7 °F 67% 29.93 in 10.0 mi WNW 9.2 mph - N/A   Clear
12:17 PM 70.9 °F 60.1 °F 69% 29.93 in 10.0 mi West 9.2 mph - N/A   Clear
12:35 PM 70.9 °F 60.1 °F 69% 29.93 in 10.0 mi NW 8.1 mph - N/A   Clear
12:55 PM 70.9 °F 60.1 °F 69% 29.93 in 10.0 mi West 9.2 mph - N/A   Clear
1:15 PM 70.7 °F 60.1 °F 69% 29.93 in 10.0 mi West 9.2 mph - N/A   Clear
1:20 PM 70.9 °F 59.5 °F 67% 29.93 in 10.0 mi WNW 6.9 mph - N/A   Clear
1:38 PM 71.6 °F 59.7 °F 66% 29.93 in 10.0 mi WNW 6.9 mph - N/A   Clear
1:56 PM 71.1 °F 60.3 °F 69% 29.94 in 10.0 mi West 10.4 mph - N/A   Clear
2:15 PM 71.4 °F 61.0 °F 70% 29.94 in 10.0 mi WNW 10.4 mph - N/A   Clear
2:35 PM 71.2 °F 59.7 °F 67% 29.94 in 10.0 mi WNW 9.2 mph - N/A   Clear
2:36 PM 71.4 °F 59.9 °F 67% 29.94 in 10.0 mi WNW 10.4 mph - N/A   Clear
2:59 PM 72.5 °F 59.5 °F 64% 29.94 in 10.0 mi NW 9.2 mph - N/A   Clear
3:17 PM 72.3 °F 59.0 °F 63% 29.94 in 10.0 mi West 6.9 mph - N/A   Clear
3:35 PM 72.1 °F 58.5 °F 62% 29.93 in 10.0 mi NW 8.1 mph - N/A   Clear
3:55 PM 73.2 °F 57.7 °F 58% 29.93 in 10.0 mi WNW 5.8 mph - N/A   Clear
4:15 PM 73.6 °F 57.7 °F 58% 29.93 in 10.0 mi West 6.9 mph - N/A   Clear
4:20 PM 73.8 °F 57.6 °F 57% 29.93 in 10.0 mi WNW 5.8 mph - N/A   Clear
4:38 PM 73.6 °F 55.2 °F 53% 29.93 in 10.0 mi NW 8.1 mph - N/A   Clear
4:56 PM 73.8 °F 54.7 °F 51% 29.93 in 10.0 mi West 6.9 mph - N/A   Clear
5:15 PM 73.6 °F 54.0 °F 50% 29.94 in 10.0 mi NW 6.9 mph - N/A   Clear
5:16 PM 73.6 °F 54.1 °F 50% 29.93 in 10.0 mi NW 6.9 mph - N/A   Clear
5:35 PM 73.6 °F 53.8 °F 50% 29.94 in 10.0 mi WSW 5.8 mph - N/A   Clear
5:59 PM 73.8 °F 54.5 °F 51% 29.93 in 10.0 mi NW 4.6 mph - N/A   Clear
6:17 PM 73.6 °F 53.6 °F 50% 29.94 in 10.0 mi NW 3.5 mph - N/A   Clear
6:35 PM 73.0 °F 54.5 °F 52% 29.93 in 10.0 mi WSW 3.5 mph - N/A   Clear
6:36 PM 72.9 °F 54.9 °F 53% 29.93 in 10.0 mi West 3.5 mph - N/A   Clear
6:55 PM 73.4 °F 55.6 °F 54% 29.93 in 10.0 mi Calm Calm - N/A   Clear
7:15 PM 72.5 °F 55.0 °F 54% 29.93 in 10.0 mi Calm Calm - N/A   Clear
7:38 PM 71.6 °F 55.6 °F 57% 29.93 in 10.0 mi SW 4.6 mph - N/A   Clear
7:56 PM 70.9 °F 54.1 °F 55% 29.93 in 10.0 mi WSW 4.6 mph - N/A   Clear
8:15 PM 69.8 °F 55.9 °F 61% 29.94 in 10.0 mi WSW 4.6 mph - N/A   Clear
8:16 PM 69.6 °F 55.9 °F 62% 29.94 in 10.0 mi WSW 5.8 mph - N/A   Clear
8:35 PM 68.0 °F 57.0 °F 68% 29.94 in 10.0 mi SW 3.5 mph - N/A   Clear
8:59 PM 67.6 °F 57.7 °F 71% 29.94 in 10.0 mi Calm Calm - N/A   Clear
9:17 PM 64.2 °F 58.3 °F 81% 29.94 in 10.0 mi Calm Calm - N/A   Clear
9:35 PM 62.4 °F 58.8 °F 88% 29.94 in 4.0 mi Calm Calm - N/A   Clear
9:36 PM 62.6 °F 59.0 °F 88% 29.94 in 4.0 mi Calm Calm - N/A   Clear
9:55 PM 61.3 °F 58.6 °F 91% 29.95 in 7.0 mi Calm Calm - N/A   Clear
10:15 PM 59.9 °F 58.8 °F 96% 29.95 in 10.0 mi Calm Calm - N/A   Clear
10:38 PM 61.7 °F 59.5 °F 93% 29.95 in 10.0 mi Calm Calm - N/A   Clear
10:56 PM 59.5 °F 58.6 °F 97% 29.95 in 10.0 mi Calm Calm - N/A   Clear
11:15 PM 59.7 °F 59.0 °F 97% 29.95 in 10.0 mi Calm Calm - N/A   Clear
11:35 PM 59.4 °F 58.8 °F 98% 29.95 in 10.0 mi Calm Calm - N/A   Clear
11:59 PM 59.9 °F 59.2 °F 97% 29.95 in 10.0 mi Calm Calm - N/A   Clear